Location: Bonac
(42.8765°N, 0.9753°E)
Time: 04:57:06
(UTC+00:00)

Cosmos 2297 - Visible Passes

Search period start: 21 April 2026 00:00
Search period end: 01 May 2026 00:00
Orbit: 833 x 858 km, 71.0° (Epoch: 20 April)

Date Brightness Start Highest point End Pass type
(mag) Time Alt. Az. Time Alt. Az. Time Alt. Az.
21 Apr 4.6 20:16:10 10° N 20:21:25 35° NE 20:23:55 25° ESE visible
21 Apr 4.7 22:00:20 10° NW 22:05:33 37° WSW 22:05:50 36° WSW visible
22 Apr 4.6 20:02:24 10° N 20:07:37 34° NE 20:10:44 20° ESE visible
22 Apr 4.6 21:46:31 10° NW 21:51:46 38° WSW 21:52:39 36° SW visible
23 Apr 4.6 19:48:37 10° N 19:53:49 34° NE 19:57:35 17° ESE visible
23 Apr 4.7 21:32:42 10° NW 21:37:59 39° WSW 21:39:30 33° SW visible
24 Apr 4.7 19:34:51 10° N 19:40:00 33° NE 19:44:28 13° ESE visible
24 Apr 4.7 21:18:54 10° NW 21:24:12 40° WSW 21:26:23 29° SSW visible
25 Apr 4.7 19:21:05 10° N 19:26:12 32° NE 19:31:16 10° ESE visible
25 Apr 4.7 21:05:05 10° NW 21:10:25 41° WSW 21:13:20 24° SSW visible
26 Apr 4.7 20:51:16 10° NW 20:56:39 42° WSW 21:00:19 19° SSW visible
27 Apr 4.7 20:37:27 10° NW 20:42:52 44° WSW 20:47:22 14° S visible
28 Apr 4.6 20:23:38 10° NW 20:29:04 45° WSW 20:34:28 10° S visible
29 Apr 4.6 20:09:50 10° NW 20:15:17 46° WSW 20:20:42 10° S visible
30 Apr 4.6 19:56:01 10° NW 20:01:30 48° WSW 20:06:56 10° S visible
